{"data":{"norad_id":65842,"epoch":"2026-05-25T03:27:04.059936Z","epoch_age_seconds":55850,"freshness":"FRESH","line1":"1 65842U 25221V   26145.14379699  .00013731  00000+0  41669-3 0  9996","line2":"2 65842  53.1585  92.8785 0001072  84.3070 275.8055 15.34405818 36443","mean_motion":15.34405818,"eccentricity":0.0001072,"inclination_deg":53.1585,"raan_deg":92.8785,"arg_perigee_deg":84.307,"mean_anomaly_deg":275.8055,"bstar":0.00041669,"rev_number":3644,"period_min":93.84740223919,"perigee_km":461.95261171964,"apogee_km":463.41928415968,"semimajor_km":6840.8229479397,"source":"CELESTRAK","updated_at":"2026-05-25T13:38:20.945994Z"}}